Vorticity
4 2 4 4 5 5 6 6 6 8 6 4 6 4 5 4 0 2 6 3 4 3 4 5 6 8 9 7 -3 -26 -2 7 27 10 5 8 13 10
6 7 8 8 6 5 3 0 0 6 6 5 2 1 5 6 5 8 3 1 5 4 5 4 6 8 21 -13 8 -4 3 3 -1 22 16 7 8 13
9 9 8 8 8 10 13 10 9 7 4 4 7 -0 -7 7 9 8 5 7 5 3 5 6 4 4 5 4 14 -10 10 10 -3 2 9 5 10 -12
14 12 9 9 8 8 7 7 13 13 14 12 5 5 7 1 7 4 5 7 7 5 5 5 6 5 5 1 5 13 4 -3 -2 10 1 -1 28 9
27 28 28 25 23 22 17 15 15 12 10 15 7 13 11 3 1 8 5 6 9 4 6 5 8 6 8 16 -2 10 2 1 -0 1 13 17 16 10
26 27 30 33 35 31 34 35 37 37 34 33 23 8 9 9 5 4 6 12 10 9 5 6 6 7 7 7 12 5 6 4 4 3 11 5 -7 0
25 24 20 19 22 24 27 29 32 35 37 38 49 49 40 36 24 5 15 13 12 3 6 4 4 8 10 7 15 -3 -0 2 -4 5 9 19 0 -1
15 11 13 13 16 17 18 20 20 24 23 25 28 33 39 45 52 46 33 36 28 22 13 13 8 6 8 9 8 9 8 5 -5 4 0 -7 -9 5
7 7 9 11 10 13 16 19 21 22 22 22 23 24 26 25 32 44 51 30 47 47 46 26 17 15 9 4 9 8 12 6 3 5 7 4 1 1
12 10 10 7 7 16 21 21 20 19 22 23 24 22 19 21 22 25 27 23 31 39 40 39 25 17 17 13 17 10 40 18 8 6 4 5 3 1
5 5 6 10 15 21 22 19 19 22 18 17 16 17 17 17 15 21 21 23 24 31 33 42 41 26 16 15 14 3 9 -9 15 15 12 10 9 8
7 10 10 16 21 21 19 17 18 17 18 14 13 13 13 16 16 18 26 24 26 30 26 43 45 27 21 13 13 8 11 25 -9 -4 16 -2 3 4
10 17 20 21 22 17 16 15 17 18 12 14 14 13 12 11 11 10 10 15 20 33 15 35 44 40 28 23 12 11 13 -7 14 24 8 -6 16 1
16 19 19 20 17 16 16 15 17 10 11 12 16 14 14 15 14 12 12 12 13 24 16 25 42 50 45 25 19 13 8 10 12 21 -2 3 -5 21
21 19 18 17 15 16 17 19 12 5 6 6 6 6 10 12 15 17 14 13 14 12 18 20 31 36 51 48 24 16 20 11 -20 -1 13 -11 10 -16
17 15 16 16 17 20 19 16 9 6 6 7 7 8 14 12 14 14 15 15 16 13 14 15 23 32 36 55 46 24 15 21 -0 -2 11 22 24 34
12 12 15 18 18 15 15 15 10 10 10 10 12 12 8 9 10 11 18 17 17 17 17 17 14 21 33 40 57 38 30 23 -37 18 -7 -20 1 41
13 16 16 15 13 14 15 11 10 9 8 7 7 7 7 9 9 10 8 10 16 17 18 16 15 15 21 32 59 38 53 25 -6 -32 8 21 21 9
12 13 15 14 11 13 12 11 11 7 7 8 9 10 11 12 12 11 11 9 7 8 13 15 16 15 18 32 22 68 37 72 15 1 30 4 10 9
13 12 11 8 10 10 9 8 7 9 12 13 13 13 13 14 13 13 11 12 11 12 11 15 22 24 15 21 19 26 68 29 75 15 11 -66 25 21
11 11 10 13 12 10 12 11 10 12 11 12 11 12 12 13 13 12 11 12 11 9 9 10 13 14 27 19 23 22 29 54 42 51 -7 -12 -4 -1
9 9 12 11 11 13 10 9 9 9 10 10 11 14 16 16 16 14 12 11 12 10 7 9 12 12 16 31 20 24 24 30 52 68 2 19 -44 -31
13 13 12 15 13 8 6 8 8 9 11 13 16 15 13 14 12 12 12 10 9 9 11 12 15 10 17 21 29 22 30 27 45 59 62 15 -38 -8
Height
5560 5562 5565 5567 5572 5576 5582 5588 5592 5600 5609 5618 5621 5625 5622 5625 5633 5640 5647 5655 5661 5668 5673 5680 5687 5693 5698 5703 5708 5711 5718 5721 5723 5728 5735 5741 5744 5749
5525 5527 5529 5532 5536 5538 5542 5548 5554 5561 5570 5579 5588 5594 5599 5604 5605 5610 5621 5628 5635 5642 5649 5657 5664 5672 5679 5684 5691 5697 5703 5708 5711 5714 5720 5727 5731 5735
5489 5491 5492 5493 5498 5501 5505 5510 5515 5518 5527 5543 5547 5557 5566 5573 5581 5582 5588 5599 5607 5612 5624 5631 5640 5649 5657 5664 5671 5679 5685 5690 5695 5700 5705 5712 5718 5722
5453 5455 5457 5455 5460 5460 5462 5468 5473 5477 5482 5500 5507 5512 5523 5532 5544 5553 5559 5565 5576 5586 5591 5604 5613 5622 5634 5642 5649 5656 5665 5671 5678 5684 5689 5695 5700 5706
5415 5416 5418 5417 5422 5421 5422 5425 5429 5433 5437 5448 5470 5469 5476 5483 5497 5512 5525 5535 5541 5550 5560 5571 5583 5595 5605 5615 5624 5634 5642 5652 5660 5666 5673 5679 5684 5689
5384 5384 5385 5383 5384 5384 5384 5388 5391 5391 5394 5397 5415 5429 5432 5440 5449 5463 5477 5492 5507 5513 5525 5537 5550 5564 5575 5588 5600 5608 5619 5627 5637 5646 5653 5659 5666 5674
5361 5360 5359 5357 5356 5356 5355 5358 5358 5358 5360 5361 5369 5380 5389 5395 5405 5412 5421 5443 5463 5475 5486 5497 5516 5532 5546 5556 5570 5581 5591 5603 5613 5622 5630 5635 5645 5653
5341 5339 5338 5336 5335 5334 5334 5332 5332 5332 5334 5335 5338 5344 5354 5354 5360 5364 5373 5386 5414 5442 5437 5460 5473 5491 5509 5521 5538 5550 5563 5575 5586 5597 5608 5617 5624 5632
5322 5320 5319 5319 5316 5314 5314 5311 5311 5311 5310 5311 5311 5322 5324 5330 5330 5336 5333 5341 5358 5380 5383 5415 5427 5449 5468 5485 5501 5517 5533 5546 5559 5571 5583 5592 5602 5611
5303 5302 5300 5301 5299 5294 5292 5291 5292 5293 5294 5291 5291 5298 5299 5308 5302 5305 5307 5309 5320 5338 5342 5361 5388 5405 5424 5445 5464 5483 5503 5514 5529 5544 5557 5568 5578 5589
5286 5284 5281 5280 5280 5277 5272 5271 5274 5278 5276 5275 5276 5279 5282 5286 5284 5281 5283 5285 5293 5310 5313 5325 5350 5362 5383 5406 5427 5447 5467 5481 5500 5516 5528 5543 5555 5565
5269 5267 5265 5262 5261 5260 5256 5256 5257 5263 5261 5262 5263 5265 5266 5269 5269 5265 5268 5265 5266 5278 5300 5291 5313 5317 5339 5366 5389 5409 5433 5449 5469 5488 5504 5515 5529 5542
5250 5251 5249 5246 5244 5244 5243 5242 5244 5246 5247 5247 5251 5253 5253 5253 5254 5250 5250 5246 5248 5257 5279 5263 5276 5286 5301 5332 5351 5374 5397 5420 5437 5458 5473 5490 5505 5515
5233 5233 5233 5231 5230 5230 5230 5230 5231 5232 5234 5236 5237 5239 5238 5239 5238 5235 5235 5234 5235 5240 5251 5248 5252 5264 5275 5292 5317 5339 5364 5388 5409 5425 5443 5462 5477 5492
5217 5217 5217 5217 5216 5217 5218 5219 5220 5221 5222 5222 5223 5224 5224 5224 5223 5221 5221 5220 5221 5224 5230 5232 5232 5243 5247 5263 5281 5304 5327 5356 5377 5396 5416 5434 5451 5465
5202 5202 5203 5204 5206 5207 5207 5208 5209 5210 5211 5211 5210 5211 5210 5209 5208 5207 5206 5206 5202 5211 5215 5216 5217 5221 5226 5237 5249 5269 5295 5319 5346 5366 5388 5406 5422 5438
5189 5189 5192 5194 5195 5195 5196 5198 5199 5200 5200 5198 5197 5197 5196 5194 5194 5192 5191 5190 5189 5195 5201 5200 5199 5201 5206 5213 5222 5241 5264 5290 5313 5336 5354 5379 5393 5411
5179 5181 5183 5183 5184 5185 5187 5188 5189 5189 5188 5187 5185 5182 5181 5179 5179 5178 5175 5174 5176 5179 5183 5185 5183 5182 5186 5194 5205 5224 5236 5262 5280 5302 5325 5349 5369 5383
5171 5172 5173 5174 5175 5176 5177 5178 5179 5179 5177 5175 5172 5170 5168 5166 5164 5163 5162 5159 5159 5161 5165 5166 5165 5165 5169 5176 5197 5195 5210 5226 5244 5260 5291 5317 5337 5362
5163 5164 5165 5166 5167 5167 5168 5167 5168 5167 5166 5163 5160 5157 5155 5151 5150 5148 5146 5143 5141 5142 5144 5147 5147 5149 5150 5160 5160 5167 5170 5191 5210 5237 5260 5285 5317 5332
5155 5157 5158 5159 5159 5159 5159 5158 5157 5156 5153 5150 5147 5144 5141 5137 5135 5132 5129 5126 5123 5123 5124 5127 5130 5128 5129 5129 5136 5153 5163 5167 5189 5212 5233 5258 5286 5303
5149 5151 5151 5151 5151 5150 5150 5148 5146 5143 5140 5137 5133 5129 5126 5122 5119 5115 5112 5108 5108 5106 5106 5108 5110 5109 5110 5114 5125 5133 5143 5146 5157 5181 5199 5229 5253 5277
5143 5145 5145 5144 5143 5141 5139 5137 5134 5132 5128 5123 5119 5115 5111 5106 5102 5098 5094 5091 5088 5086 5087 5088 5089 5089 5093 5099 5105 5113 5122 5128 5138 5155 5176 5203 5235 5267